www.pogodaiklimat.ru
Время
(UTC), дата
18 27.07
21 27.07
00 28.07
03 28.07
06 28.07
09 28.07
12 28.07
15 28.07
18 28.07
21 28.07
00 29.07
03 29.07
06 29.07
09 29.07
12 29.07
15 29.07
18 29.07
21 29.07
00 30.07
03 30.07
06 30.07
09 30.07
12 30.07
15 30.07
18 30.07
21 30.07
00 31.07
03 31.07
06 31.07
09 31.07
12 31.07
15 31.07
18 31.07
21 31.07
00 1.08
03 1.08
06 1.08
09 1.08
12 1.08
15 1.08
18 1.08
21 1.08
00 2.08
03 2.08
06 2.08
09 2.08
12 2.08
15 2.08
18 2.08
21 2.08
00 3.08
03 3.08
06 3.08
09 3.08
12 3.08
15 3.08
Ветер
(напр.,м/с)
Видим. Явления Облачность Т
(С)
Тd
(С)
f
(%)
Тe
(С)
Тes
(С)
Комфортность P
(гПа)
Po
(гПа)
Тmin
(С)
Tmax
(С)
R
(мм)
R24
(мм)
S
(см)
штиль 0 4000 м дымка {гроза, ливн. дождь} 8/8 600 м
[Sc]
+17.5 +17.1 98 +17 +17 по сезону 1019.5 1000.9 +26.4 48
штиль 0 н/о дымка 9/9 600 м
[Sc]
+17.2 +16.8 97 +17 +17 тепло 1019.8 1001.2
штиль 0 н/о дымка 3/3 600 м
[Sc]
+16.2 +15.9 98 +16 +16 тепло 1020.0 1001.3
штиль 0 2000 м дымка 9/9 600 м
[Sc]
+16.0 +15.7 98 +16 +16 тепло 1019.5 1000.8 +15.2
штиль 0 4000 м дымка 3/3 600 м
[Sc]
+20.7 +19.9 95 +25 +32 комфорт 1018.9 1000.5 +15.2
Ю 2 10 км ясно +26.4 +13.4 45 +28 +42 жарко 1018.1 1000.0
Ю 1 10 км 5/5 600 м
[Cu med, cong]
+27.7 +13.4 41 +29 +36 жарко 1017.1 999.1
Ю 1 10 км ясно +27.1 +12.6 41 +29 +31 жарко 1015.8 997.8
штиль 0 10 км 5/1 1000 м
[Sc Ci]
+22.6 +13.7 57 +26 +26 жарко 1016.4 998.1 +27.8
штиль 0 н/о 6/6 1000 м
[Sc]
+20.7 +14.8 69 +23 +23 комфорт 1015.9 997.6
штиль 0 н/о 10/10 1000 м
[Sc]
+19.8 +14.6 72 +22 +22 комфорт 1015.4 997.0
штиль 0 4000 м слаб. ливневой дождь 10/10 600 м
[Cb calv]
+18.6 +16.0 85 +19 +19 тепло 1015.6 997.1 +18.6 0.4
ЮВ 1 10 км дымка {ливн. дождь} 10/10 1000 м
[Sc]
+20.7 +17.8 83 +26 +26 душно 1014.6 996.2 +18.0 0.8
Ю 1 10 км {ливн. дождь} 6/3 600 м
[Sc Ac trans Ci fib]
+27.8 +14.1 43 +30 +39 жарко 1013.1 995.2
Ю 1 10 км {ливн. дождь} 8/3 600 м
[Sc diur, vesp Ac trans Ci fib]
+28.8 +15.5 44 +32 +37 душно 1012.0 994.2
Ю 1 10 км 9/3 600 м
[Sc Ac trans Ci sp]
+26.8 +14.5 47 +29 +30 жарко 1010.3 992.4 0.4
штиль 0 4000 м гроза, ливневой дождь 10/10 600 м
[Cb calv]
+18.5 +17.7 95 +19 +19 тепло 1011.8 993.4 +28.9 4
штиль 0 н/о дымка {гроза, ливн. дождь} 9/5 1000 м
[Sc Ac trans]
+18.2 +17.3 94 +19 +19 тепло 1010.4 992.0
штиль 0 н/о слаб. ливневой дождь {гроза} 10/10 600 м
[Cb cap]
+17.6 +16.6 94 +18 +18 тепло 1010.7 992.2
СЗ 1 4000 м дымка {ливн. дождь} 10/10 300 м
[Frnb]
+17.5 +16.5 94 +19 +19 тепло 1010.6 992.2 +16.8 6
СЗ 1 10 км {ливн. дождь} 9/9 600 м
[Cu med, cong]
+19.6 +15.0 75 +23 +24 комфорт 1011.5 993.2 +16.8 3
З 1 10 км 8/8 600 м
[Cu med, cong]
+22.5 +11.4 49 +25 +28 комфорт 1011.5 993.3
З 2 10 км 9/8 600 м
[Cu med, cong Ci fib]
+21.9 +9.8 46 +23 +25 комфорт 1010.7 992.5
З 1 10 км 5/5 600 м
[Cu med, cong]
+20.6 +9.1 48 +23 +24 комфорт 1009.9 991.6
СЗ 1 10 км 9/9 1000 м
[Sc diur, vesp]
+16.1 +9.3 64 +17 +17 прохладно 1010.5 991.9 +22.5
СЗ 1 н/о ясно +13.6 +10.0 79 +14 +14 прохладно 1010.2 991.5
штиль 0 н/о 4/3 1000 м
[Sc Ci fib]
+12.8 +10.0 83 +12 +12 прохладно 1009.2 990.4
СЗ 1 10 км 5/3 1000 м
[Sc Ac cast Ci fib]
+12.8 +10.3 85 +13 +13 холодно 1008.7 989.9 +11.9
З 1 10 км 9/9 600 м
[Sc]
+15.4 +11.2 76 +16 +17 прохладно 1008.3 989.7 +11.9
Ю 1 4000 м слаб. ливневой дождь 10/10 300 м
[Cb cap]
+15.6 +12.8 83 +16 +16 холодно 1007.9 989.3
ЮВ 1 10 км {ливн. дождь} 8/8 600 м
[Cu Sc]
+20.2 +11.2 56 +23 +25 комфорт 1006.4 988.2
СЗ 1 10 км {ливн. дождь} 9/9 600 м
[Cu Sc]
+19.7 +10.7 56 +22 +22 комфорт 1005.9 987.6 0.7
штиль 0 4000 м в посл. час ливневой дождь 8/8 600 м
[Cb cap]
+13.7 +12.6 93 +13 +13 холодно 1006.2 987.6 +20.3 2
штиль 0 н/о дымка 3/3 600 м
[Sc]
+12.7 +12.1 96 +12 +12 холодно 1006.0 987.3
штиль 0 н/о дымка 6/6 600 м
[Sc]
+11.8 +11.4 97 +11 +11 холодно 1005.3 986.5
штиль 0 4000 м дымка 9/9 600 м
[Sc]
+13.5 +12.2 92 +13 +13 холодно 1004.5 985.9 +11.7 1
СВ 1 10 км 10/10 600 м
[Sc]
+16.4 +12.9 80 +17 +17 прохладно 1004.2 985.8 +11.7
СВ 1 10 км 10/10 600 м
[Cu Sc]
+18.3 +12.5 69 +20 +20 по сезону 1004.2 985.9
З 1 10 км 9/6 600 м
[Cu Sc Ac trans Ci fib]
+20.8 +11.1 54 +24 +27 комфорт 1003.7 985.5
С 2 10 км 6/3 600 м
[Cu Sc Ac trans Ci fib]
+19.2 +11.2 60 +21 +22 комфорт 1004.5 986.2
С 1 10 км {ливн. дождь} 6/3 600 м
[Sc diur, vesp Ac trans Ci fib]
+16.3 +12.8 80 +17 +17 прохладно 1005.7 987.2 +20.9 0.0
С 2 н/о 6/0
[Ac trans]
+15.1 +12.7 86 +15 +15 прохладно 1005.6 987.1
С 2 н/о 10/10 600 м
[Sc]
+14.5 +12.6 88 +14 +14 по сезону 1006.2 987.6
С 2 10 км 10/10 300 м
[Frnb]
+14.8 +12.4 86 +14 +14 прохладно 1007.0 988.5 +14.3 0.0
С 2 10 км {ливн. дождь} 9/6 600 м
[Cu Sc Ac trans Ci fib]
+16.0 +10.8 71 +16 +18 прохладно 1008.2 989.6 +14.2 0.1
СЗ 2 10 км 8/8 600 м
[Cu Sc]
+17.7 +8.4 54 +18 +21 прохладно 1009.2 990.8
С 3 10 км 6/3 600 м
[Cu Sc Ci fib]
+19.2 +6.6 44 +20 +25 прохладно 1009.8 991.4
С 3 10 км 5/4 600 м
[Cu Sc Ci fib]
+18.7 +7.4 48 +19 +20 прохладно 1010.7 992.2 0.1
штиль 0 10 км 9/9 600 м
[Sc]
+16.5 +9.5 63 +16 +16 прохладно 1012.4 993.8 +19.7
штиль 0 н/о 6/6 1000 м
[Sc]
+13.3 +10.6 84 +13 +13 прохладно 1013.4 994.6
штиль 0 н/о 9/9 1000 м
[Sc]
+13.5 +10.6 83 +13 +13 прохладно 1014.3 995.5
штиль 0 4000 м дымка 8/3 1000 м
[Sc Ci fib]
+12.3 +10.8 91 +12 +12 холодно 1015.6 996.7 +11.7
З 1 10 км 8/0
[Ac trans Ci fib]
+17.8 +11.2 65 +19 +26 по сезону 1016.0 997.4 +11.7
З 1 10 км 9/5 600 м
[Cu med, cong Ci fib]
+20.4 +9.0 48 +23 +29 комфорт 1015.8 997.4
штиль 0 10 км 6/6 1000 м
[Sc]
+21.1 +9.8 48 +22 +28 комфорт 1015.5 997.1
штиль 0 10 км 8/3 1000 м
[Sc Ac trans Ci fib]
+21.5 +8.7 44 +23 +24 комфорт 1015.4 997.1
Местоположение метеостанции Москва (город Москва, Россия): широта 55.83 долгота 37.62 высота над уровнем моря 156 м.
В архиве по умолчанию представлена погода в Москве за последнюю неделю. Архивные данные за месяц целиком и за предыдущие месяцы, начиная с января 2011 года, Вы можете получить, выбрав интересующий диапазон дат из раскрывающегося списка и нажав кнопку "Найти!".
*Определитесь, кто Вы:
Внимание! Время в таблицах - всемирное. Для получения местного времени необходимо прибавить поправку, которая равна 3 ч.
Смотрите также архив погоды в соседних городах и на ближайших метеорологических станциях:
Партнеры нашего сайта:      
Пояснения к столбцам:
  • Ветер - указаны скорость ветра в м/с - средняя за 10 мин, порывы в срок и между сроками (в фигурных скобках) и направление, откуда дует ветер: С - северный,
  • СВ - северо-восточный, В - восточный, ЮВ - юго-восточный, Ю - южный, ЮЗ - юго-западный, З - западный, СЗ - северо-западный.
  • Видимость - горизонтальная дальность видимости в метрах или километрах. При видимости от 1 до 10 км при отсутствии осадков обычно наблюдается дымка, при ухудшении видимости до 1 км и менее - туман. В сухую погоду видимость может ухудшаться дымом, пылью или мглою.
  • Явления - указаны атмосферные явления, наблюдавшиеся в срок или в последний час перед сроком; фигурными скобками обозначены явления, наблюдавшиеся между сроками (за 1-3 часа до срока); квадратными скобками обозначены град или гололедные отложения с указанием их диаметра в мм.
  • Облачность - указаны через наклонную черту общая и нижняя облачность в баллах и высота нижней границы облаков в метрах; квадратными скобками обозначены формы облаков: Ci - перистые, Cs - перисто-слоистые, Cc - перисто-кучевые, Ac - высококучевые, As - высокослоистые, Sc - слоисто-кучевые, Ns - слоисто-дождевые, Cu - кучевые, Cb - кучево-дождевые. Подробнее классификацию облаков см. в Атласе облаков (PDF).
  • T - Температура воздуха - температура, измеренная на высоте 2 м над землей.
  • Td - Температура точки росы - температура, при понижении до которой содержащийся в воздухе водяной пар достигнет насыщения.
  • f - Относительная влажность воздуха - влажноcть воздуха, измеренная на высоте 2 м над землей.
  • Te - Эффективная температура - температура, которую ощущает одетый по сезону человек в тени. Характеристика душности погоды. При расчете учитывается влияние влажности воздуха и скорости ветра на теплоощущения человека.
  • Tes - Эффективная температура на солнце - температура, которую ощущает человек, с поправкой на солнечный нагрев. Характеристика знойности погоды. Зависит от высоты солнца над горизонтом, облачности и скорости ветра. Ночью, в пасмурную погоду, а также при ветре 12 м/с и более поправка равна нулю.
  • P - Атмосферное давление - приведенное к уровню моря атмосферное давление.
  • Po - Атмосферное давление - измеренное на уровне метеостанции атмосферное давление.
  • Tmin - Минимальная температура - минимум температуры воздуха на высоте 2 м над землей.
  • Tmax - Максимальная температура - максимум температуры воздуха на высоте 2 м над землей.
  • R - Количество осадков - Количество выпавших осадков за период времени, мм. При наведении курсора мыши на число - период времени, за который выпало указанное количество осадков.
  • R24 - Количество осадков - Количество выпавших осадков за 24 часа, мм.
  • S - Снежный покров - Высота снежного покрова, см. При наведении курсора мыши на число - состояние снежного покрова и степень покрытия местности в баллах.